AWE1945 KCLT-KCLE

Flight info

Callsign AWE1945
Flight time N/A
Altitude 37000
Route WEAZL5 CLAWD Q39 ASERY JANYS ROLLN2
Aircraft A319/M-SDE3FGHIRWY/LB1

Departure

Time 2026-05-05 23:43
Airport Charlotte Douglas International Airport (KCLT)

Arrival

Time N/A
Airport Cleveland Hopkins International Airport (KCLE)
Time Latitude Longitude Altitude Speed Heading
2026-05-05 23:28 35.21874 -80.94577 731 ft 0 kts 96°
2026-05-05 23:36 35.21876 -80.94600 732 ft 4 kts 96°
2026-05-05 23:36 35.21878 -80.94626 732 ft 4 kts 97°
2026-05-05 23:36 35.21884 -80.94656 732 ft 4 kts 132°
2026-05-05 23:37 35.21902 -80.94665 730 ft 3 kts 176°
2026-05-05 23:37 35.21906 -80.94665 732 ft 0 kts 176°
2026-05-05 23:39 35.21900 -80.94668 731 ft 3 kts 203°
2026-05-05 23:39 35.21882 -80.94713 732 ft 8 kts 264°
2026-05-05 23:40 35.21879 -80.94796 733 ft 11 kts 267°
2026-05-05 23:40 35.21874 -80.94905 733 ft 14 kts 267°
2026-05-05 23:40 35.21879 -80.95030 732 ft 16 kts 308°
2026-05-05 23:40 35.21990 -80.95055 734 ft 17 kts 356°
2026-05-05 23:41 35.22115 -80.95063 734 ft 19 kts 357°
2026-05-05 23:41 35.22251 -80.95074 734 ft 20 kts 356°
2026-05-05 23:41 35.22397 -80.95088 734 ft 22 kts 355°
2026-05-05 23:41 35.22554 -80.95103 734 ft 23 kts 355°
2026-05-05 23:42 35.22695 -80.95117 734 ft 18 kts 349°
2026-05-05 23:42 35.22730 -80.95238 737 ft 16 kts 267°
2026-05-05 23:42 35.22710 -80.95313 741 ft 7 kts 208°
2026-05-05 23:42 35.22584 -80.95304 741 ft 42 kts 175°
2026-05-05 23:43 35.22095 -80.95265 742 ft 100 kts 176°
2026-05-05 23:43 35.21213 -80.95188 766 ft 150 kts 178°
2026-05-05 23:43 35.20154 -80.95080 1358 ft 155 kts 177°
2026-05-05 23:43 35.19086 -80.94988 2153 ft 153 kts 179°
2026-05-05 23:44 35.17991 -80.94903 2748 ft 167 kts 179°
2026-05-05 23:44 35.16767 -80.95015 3161 ft 190 kts 200°
2026-05-05 23:44 35.15674 -80.96073 3627 ft 217 kts 231°
2026-05-05 23:44 35.15236 -80.97964 4125 ft 255 kts 269°
2026-05-05 23:45 35.15929 -81.00031 5048 ft 277 kts 306°
2026-05-05 23:45 35.17552 -81.01377 6099 ft 293 kts 336°
2026-05-05 23:45 35.19568 -81.01901 7153 ft 299 kts 351°
2026-05-05 23:45 35.21640 -81.02040 8292 ft 298 kts 355°
2026-05-05 23:46 35.23708 -81.02091 9431 ft 296 kts 354°
2026-05-05 23:46 35.25773 -81.02185 10318 ft 304 kts 352°
2026-05-05 23:46 35.27958 -81.02382 10664 ft 326 kts 350°
2026-05-05 23:46 35.30292 -81.02677 10993 ft 347 kts 349°
2026-05-05 23:47 35.32722 -81.03042 11625 ft 355 kts 348°
2026-05-05 23:47 35.35181 -81.03438 12375 ft 359 kts 347°
2026-05-05 23:47 35.37676 -81.03851 13133 ft 364 kts 347°
2026-05-05 23:47 35.40197 -81.04266 13903 ft 367 kts 347°
2026-05-05 23:48 35.42741 -81.04679 14614 ft 371 kts 347°
2026-05-05 23:48 35.45314 -81.05096 15279 ft 374 kts 347°
2026-05-05 23:48 35.47906 -81.05515 16001 ft 377 kts 347°
2026-05-05 23:48 35.50511 -81.05934 16745 ft 378 kts 347°
2026-05-05 23:49 35.53126 -81.06355 17497 ft 380 kts 347°
2026-05-05 23:49 35.55757 -81.06778 18240 ft 382 kts 347°
2026-05-05 23:49 35.58397 -81.07203 18855 ft 385 kts 347°
2026-05-05 23:49 35.61069 -81.07634 19457 ft 388 kts 347°
2026-05-05 23:50 35.63757 -81.08068 20074 ft 391 kts 347°
2026-05-05 23:50 35.66468 -81.08504 20665 ft 394 kts 347°
2026-05-05 23:50 35.69209 -81.08894 21225 ft 399 kts 349°
2026-05-05 23:50 35.71993 -81.09170 21777 ft 403 kts 351°
2026-05-05 23:51 35.74809 -81.09375 22306 ft 407 kts 351°
2026-05-05 23:51 35.77650 -81.09554 22821 ft 410 kts 351°
2026-05-05 23:51 35.80513 -81.09738 23322 ft 413 kts 351°
2026-05-05 23:51 35.83393 -81.09940 23776 ft 416 kts 351°
2026-05-05 23:52 35.86291 -81.10161 24155 ft 418 kts 350°
2026-05-05 23:52 35.89198 -81.10396 24610 ft 420 kts 350°
2026-05-05 23:52 35.92118 -81.10636 25079 ft 421 kts 350°
2026-05-05 23:52 35.95043 -81.10881 25566 ft 421 kts 349°
2026-05-05 23:53 35.97934 -81.11123 26017 ft 423 kts 349°
2026-05-05 23:53 36.00873 -81.11363 26460 ft 424 kts 349°
2026-05-05 23:53 36.03829 -81.11602 26893 ft 426 kts 349°
2026-05-05 23:53 36.06790 -81.11842 27326 ft 428 kts 349°
2026-05-05 23:54 36.09770 -81.12083 27741 ft 430 kts 349°
2026-05-05 23:54 36.12759 -81.12329 28146 ft 431 kts 349°
2026-05-05 23:54 36.15761 -81.12580 28539 ft 433 kts 349°
2026-05-05 23:54 36.18772 -81.12827 28940 ft 436 kts 349°
2026-05-05 23:55 36.21799 -81.13072 29291 ft 438 kts 349°
2026-05-05 23:55 36.24853 -81.13320 29641 ft 440 kts 349°
2026-05-05 23:55 36.27916 -81.13569 30000 ft 442 kts 349°
2026-05-05 23:55 36.30976 -81.13818 30456 ft 439 kts 349°
2026-05-05 23:56 36.34013 -81.14063 30966 ft 436 kts 349°
2026-05-05 23:56 36.37023 -81.14306 31471 ft 432 kts 348°
2026-05-05 23:56 36.40005 -81.14549 32003 ft 427 kts 348°
2026-05-05 23:56 36.42951 -81.14789 32475 ft 423 kts 348°
2026-05-05 23:57 36.45873 -81.15034 33031 ft 418 kts 347°
2026-05-05 23:57 36.48761 -81.15281 33626 ft 413 kts 347°
2026-05-05 23:57 36.51614 -81.15525 34190 ft 409 kts 347°
2026-05-05 23:57 36.54436 -81.15768 34677 ft 405 kts 347°
2026-05-05 23:58 36.57241 -81.16011 35107 ft 403 kts 347°
2026-05-05 23:58 36.60031 -81.16252 35557 ft 400 kts 347°
2026-05-05 23:58 36.62805 -81.16491 35959 ft 399 kts 347°
2026-05-05 23:58 36.65571 -81.16728 36363 ft 398 kts 347°
2026-05-05 23:59 36.68325 -81.16965 36824 ft 396 kts 346°
2026-05-05 23:59 36.71071 -81.17203 36972 ft 395 kts 346°
2026-05-05 23:59 36.76510 -81.17674 37007 ft 393 kts 346°
2026-05-06 00:00 36.81969 -81.18142 37017 ft 393 kts 346°
2026-05-06 00:00 36.87419 -81.18609 37024 ft 393 kts 346°
2026-05-06 00:01 36.92872 -81.19090 37025 ft 393 kts 346°
2026-05-06 00:01 36.98323 -81.19565 37013 ft 393 kts 346°
2026-05-06 00:02 37.03779 -81.20032 37001 ft 393 kts 346°
2026-05-06 00:02 37.09236 -81.20502 36986 ft 393 kts 346°
2026-05-06 00:03 37.14689 -81.20974 36957 ft 393 kts 346°
2026-05-06 00:03 37.20145 -81.21452 36953 ft 393 kts 346°
2026-05-06 00:04 37.25598 -81.21925 36925 ft 393 kts 346°
2026-05-06 00:04 37.31057 -81.22401 37007 ft 393 kts 346°
2026-05-06 00:05 37.39209 -81.23114 37032 ft 393 kts 346°
2026-05-06 00:06 37.44667 -81.23588 37006 ft 393 kts 346°
2026-05-06 00:06 37.50128 -81.24075 36976 ft 393 kts 345°
2026-05-06 00:07 37.55592 -81.24562 36932 ft 394 kts 346°
2026-05-06 00:07 37.61055 -81.25046 36950 ft 394 kts 346°
2026-05-06 00:08 37.66522 -81.25515 36974 ft 393 kts 346°
2026-05-06 00:08 37.71971 -81.25991 36967 ft 393 kts 345°
2026-05-06 00:09 37.77424 -81.26470 36964 ft 393 kts 345°
2026-05-06 00:09 37.82879 -81.26950 36963 ft 393 kts 345°
2026-05-06 00:10 37.88333 -81.27440 36971 ft 394 kts 345°
2026-05-06 00:10 37.93789 -81.27929 36955 ft 393 kts 345°
2026-05-06 00:11 37.99251 -81.28411 36898 ft 394 kts 345°
2026-05-06 00:11 38.04715 -81.28900 36885 ft 393 kts 345°
2026-05-06 00:12 38.10184 -81.29391 36877 ft 394 kts 346°
2026-05-06 00:12 38.15667 -81.29877 36891 ft 395 kts 345°
2026-05-06 00:13 38.21150 -81.30357 36880 ft 395 kts 345°
2026-05-06 00:13 38.26623 -81.30845 36880 ft 395 kts 345°
2026-05-06 00:14 38.32225 -81.30583 36880 ft 405 kts 352°
2026-05-06 00:14 38.37859 -81.30113 36895 ft 406 kts 352°
2026-05-06 00:15 38.42548 -81.29716 36886 ft 407 kts 352°
2026-05-06 00:15 38.48079 -81.29908 36876 ft 385 kts 338°
2026-05-06 00:15 38.50608 -81.30856 36875 ft 374 kts 329°
2026-05-06 00:16 38.52995 -81.32147 36868 ft 372 kts 328°
2026-05-06 00:16 38.57765 -81.34736 36895 ft 374 kts 328°
2026-05-06 00:17 38.62564 -81.37329 36895 ft 374 kts 328°
2026-05-06 00:17 38.67365 -81.39927 36887 ft 375 kts 328°
2026-05-06 00:17 38.69735 -81.41217 36707 ft 375 kts 328°
2026-05-06 00:18 38.72136 -81.42521 36454 ft 375 kts 328°
2026-05-06 00:18 38.74541 -81.43827 36197 ft 376 kts 328°
2026-05-06 00:18 38.76952 -81.45140 35942 ft 377 kts 328°
2026-05-06 00:18 38.79362 -81.46452 35700 ft 377 kts 328°
2026-05-06 00:19 38.81783 -81.47773 35492 ft 378 kts 328°
2026-05-06 00:19 38.84207 -81.49096 35251 ft 379 kts 328°
2026-05-06 00:19 38.86637 -81.50420 35010 ft 380 kts 328°
2026-05-06 00:19 38.89074 -81.51747 34778 ft 381 kts 328°
2026-05-06 00:20 38.91514 -81.53078 34536 ft 381 kts 328°
2026-05-06 00:20 38.93960 -81.54415 34293 ft 382 kts 328°
2026-05-06 00:20 38.96405 -81.55756 34065 ft 383 kts 328°
2026-05-06 00:20 38.98857 -81.57102 33824 ft 383 kts 329°
2026-05-06 00:21 39.01316 -81.58452 33552 ft 385 kts 328°
2026-05-06 00:21 39.03780 -81.59809 33280 ft 387 kts 328°
2026-05-06 00:21 39.06269 -81.61180 33047 ft 390 kts 329°
2026-05-06 00:21 39.08774 -81.62557 32782 ft 393 kts 329°
2026-05-06 00:22 39.11288 -81.63939 32521 ft 396 kts 329°
2026-05-06 00:22 39.13825 -81.65331 32264 ft 398 kts 329°
2026-05-06 00:22 39.16392 -81.66740 32018 ft 401 kts 329°
2026-05-06 00:22 39.18966 -81.68151 31758 ft 404 kts 329°
2026-05-06 00:23 39.21557 -81.69574 31500 ft 406 kts 329°
2026-05-06 00:23 39.24167 -81.71012 31264 ft 409 kts 329°
2026-05-06 00:23 39.26793 -81.72464 31019 ft 412 kts 329°
2026-05-06 00:23 39.29435 -81.73924 30807 ft 414 kts 330°
2026-05-06 00:24 39.32086 -81.75392 30565 ft 415 kts 330°
2026-05-06 00:24 39.34747 -81.76864 30326 ft 417 kts 330°
2026-05-06 00:24 39.37424 -81.78344 30087 ft 420 kts 330°
2026-05-06 00:24 39.40115 -81.79835 29829 ft 422 kts 330°
2026-05-06 00:25 39.42821 -81.81337 29549 ft 424 kts 330°
2026-05-06 00:25 39.45535 -81.82846 29272 ft 426 kts 330°
2026-05-06 00:25 39.48263 -81.84365 28990 ft 427 kts 330°
2026-05-06 00:25 39.50998 -81.85886 28716 ft 429 kts 330°
2026-05-06 00:26 39.53750 -81.87419 28470 ft 431 kts 330°
2026-05-06 00:26 39.56513 -81.88960 28203 ft 434 kts 330°
2026-05-06 00:26 39.59288 -81.90506 27926 ft 435 kts 330°
2026-05-06 00:26 39.62077 -81.92065 27676 ft 437 kts 330°
2026-05-06 00:27 39.64870 -81.93628 27418 ft 438 kts 330°
2026-05-06 00:27 39.67675 -81.95199 27156 ft 440 kts 330°
2026-05-06 00:27 39.70491 -81.96778 26904 ft 441 kts 330°
2026-05-06 00:27 39.73316 -81.98362 26654 ft 443 kts 330°
2026-05-06 00:28 39.76214 -81.99751 26417 ft 450 kts 340°
2026-05-06 00:28 39.79358 -82.00246 26171 ft 464 kts 354°
2026-05-06 00:28 39.82605 -81.99742 25930 ft 473 kts
2026-05-06 00:28 39.85848 -81.98967 25685 ft 473 kts
2026-05-06 00:29 39.89034 -81.98185 25452 ft 472 kts
2026-05-06 00:29 39.92258 -81.97388 25212 ft 471 kts
2026-05-06 00:29 39.95477 -81.96593 24977 ft 470 kts
2026-05-06 00:29 39.98693 -81.95807 24759 ft 470 kts
2026-05-06 00:30 40.01905 -81.95032 24519 ft 470 kts
2026-05-06 00:30 40.05116 -81.94263 24293 ft 469 kts
2026-05-06 00:30 40.08322 -81.93495 24038 ft 468 kts
2026-05-06 00:30 40.11522 -81.92726 23807 ft 467 kts
2026-05-06 00:31 40.14715 -81.91952 23580 ft 467 kts
2026-05-06 00:31 40.17899 -81.91177 23348 ft 466 kts
2026-05-06 00:31 40.21086 -81.90400 23091 ft 465 kts
2026-05-06 00:31 40.24264 -81.89620 22816 ft 464 kts
2026-05-06 00:32 40.27436 -81.88842 22555 ft 463 kts
2026-05-06 00:32 40.30596 -81.88069 22301 ft 461 kts
2026-05-06 00:32 40.33741 -81.87304 22030 ft 460 kts
2026-05-06 00:32 40.36885 -81.86542 21769 ft 458 kts
2026-05-06 00:33 40.40014 -81.85803 21510 ft 456 kts
2026-05-06 00:33 40.43136 -81.85081 21256 ft 454 kts
2026-05-06 00:33 40.46213 -81.84374 20999 ft 444 kts
2026-05-06 00:33 40.49254 -81.83682 20747 ft 437 kts
2026-05-06 00:34 40.52186 -81.82998 20598 ft 419 kts
2026-05-06 00:34 40.55002 -81.82327 20122 ft 405 kts
2026-05-06 00:34 40.57752 -81.81675 19433 ft 399 kts
2026-05-06 00:34 40.60470 -81.81040 18693 ft 394 kts
2026-05-06 00:35 40.63153 -81.80421 17952 ft 391 kts
2026-05-06 00:35 40.65825 -81.79804 17083 ft 388 kts
2026-05-06 00:35 40.68463 -81.79190 16422 ft 382 kts
2026-05-06 00:35 40.71070 -81.78577 15807 ft 379 kts
2026-05-06 00:36 40.73651 -81.77968 15197 ft 375 kts
2026-05-06 00:36 40.76212 -81.77364 14589 ft 372 kts
2026-05-06 00:36 40.78750 -81.76765 14008 ft 369 kts
2026-05-06 00:36 40.81280 -81.76172 13378 ft 369 kts
2026-05-06 00:37 40.83804 -81.75582 12776 ft 367 kts
2026-05-06 00:37 40.86313 -81.74995 12171 ft 365 kts
2026-05-06 00:37 40.88817 -81.74539 11578 ft 359 kts 357°
2026-05-06 00:37 40.91301 -81.74434 10982 ft 357 kts 356°
2026-05-06 00:38 40.93775 -81.74336 10414 ft 355 kts 356°
2026-05-06 00:38 40.96194 -81.74232 10241 ft 340 kts 356°
2026-05-06 00:38 40.98479 -81.74127 10128 ft 326 kts 356°
2026-05-06 00:38 41.00720 -81.74028 9883 ft 319 kts 355°
2026-05-06 00:39 41.02880 -81.74281 9639 ft 308 kts 339°
2026-05-06 00:39 41.04833 -81.75271 9202 ft 296 kts 323°
2026-05-06 00:39 41.06463 -81.76849 8771 ft 286 kts 308°
2026-05-06 00:39 41.07702 -81.78831 8436 ft 274 kts 295°
2026-05-06 00:40 41.08768 -81.80920 8014 ft 274 kts 295°
2026-05-06 00:40 41.09831 -81.83002 7564 ft 274 kts 296°
2026-05-06 00:40 41.10896 -81.85087 7198 ft 271 kts 296°
2026-05-06 00:40 41.11956 -81.87160 6814 ft 271 kts 296°
2026-05-06 00:41 41.13015 -81.89230 6429 ft 270 kts 296°
2026-05-06 00:41 41.14068 -81.91291 6046 ft 269 kts 296°
2026-05-06 00:41 41.15093 -81.93307 5999 ft 256 kts 296°
2026-05-06 00:41 41.16058 -81.95210 6017 ft 241 kts 295°
2026-05-06 00:42 41.16979 -81.96992 6017 ft 229 kts 299°
2026-05-06 00:42 41.18170 -81.98366 6008 ft 228 kts 321°
2026-05-06 00:42 41.19695 -81.99104 5651 ft 240 kts 340°
2026-05-06 00:42 41.21336 -81.99587 5314 ft 242 kts 340°
2026-05-06 00:43 41.22986 -82.00070 4984 ft 244 kts 341°
2026-05-06 00:43 41.24647 -82.00558 4663 ft 245 kts 341°
2026-05-06 00:43 41.26314 -82.01052 4324 ft 245 kts 342°
2026-05-06 00:43 41.27996 -82.01455 3984 ft 249 kts 355°
2026-05-06 00:44 41.29682 -82.00961 3649 ft 252 kts 24°
2026-05-06 00:44 41.31202 -81.99859 3321 ft 252 kts 28°
2026-05-06 00:44 41.32714 -81.98653 2976 ft 248 kts 38°
2026-05-06 00:44 41.33852 -81.97020 2681 ft 239 kts 49°
2026-05-06 00:45 41.34896 -81.95371 2373 ft 225 kts 48°
2026-05-06 00:45 41.35853 -81.93863 2086 ft 202 kts 47°